Date String (YYYY-MM-DD hh:mm:ss) UTC,Instrument flags,Ambient pressure (hPa),Sample flow (lpm),Bypass flow (lpm),Sample temperature (°C),Ambient temperature (°C),ASC tube jacket temperature (°C),LED temperature (°C),Box temperature (°C),Sample RH (%),Span deviation,Mass concentration (μg/m³),Mass concentration (μg/m³),Mass concentration (μg/m³)
DateTimeUTC,F1_M11,P_M11,Q1_M11,Q2_M11,T1_M11,T2_M11,T3_M11,T4_M11,T5_M11,U1_M11,ZSPAN_M11,X0_M11,X2_M11,X1_M11
2021-11-21 23:00:00,,0832.1,5.00,0.00,27.6,26.9,00.0,36.5,29.4,05.9,0000.0,0003.16,0001.09,0000.77
2021-11-21 23:01:00,,0832.1,5.00,0.00,27.6,26.9,00.0,36.5,29.4,05.9,0000.0,0003.14,0001.09,0000.77
2021-11-21 23:02:00,,0832.1,4.99,0.00,27.6,26.9,00.0,36.5,29.4,05.9,0000.0,0003.25,0001.12,0000.78
2021-11-21 23:03:00,,0832.1,5.01,0.00,27.6,26.9,00.0,36.5,29.4,05.9,0000.0,0002.86,0001.16,0000.79
2021-11-21 23:04:00,,0832.1,5.00,0.00,27.6,26.9,00.0,36.5,29.4,06.0,0000.0,0002.67,0001.16,0000.80
2021-11-21 23:05:00,,0832.1,5.00,0.00,27.6,26.9,00.0,36.5,29.3,06.0,0000.0,0002.67,0001.17,0000.80
2021-11-21 23:06:00,,0832.1,4.98,0.00,27.6,26.9,00.0,36.5,29.4,06.0,0000.0,0002.01,0001.16,0000.81
2021-11-21 23:07:00,,0832.1,5.00,0.00,27.6,26.9,00.0,36.5,29.4,06.0,0000.0,0001.84,0001.14,0000.80
2021-11-21 23:08:00,,0832.1,5.00,0.00,27.6,26.9,00.0,36.5,29.4,06.0,0000.0,0001.80,0001.12,0000.80
2021-11-21 23:09:00,,0832.1,5.01,0.00,27.6,26.9,00.0,36.5,29.4,06.0,0000.0,0001.89,0001.14,0000.80
2021-11-21 23:10:00,,0832.1,5.00,0.00,27.6,26.9,00.0,36.5,29.4,06.0,0000.0,0001.95,0001.18,0000.81
2021-11-21 23:11:00,,0832.1,5.00,0.00,27.6,26.9,00.0,36.6,29.4,06.0,0000.0,0001.83,0001.15,0000.81
2021-11-21 23:12:00,,0832.0,5.00,0.00,27.6,26.9,00.0,36.6,29.4,06.0,0000.0,0001.71,0001.10,0000.80
2021-11-21 23:13:00,,0832.1,5.01,0.00,27.6,26.9,00.0,36.6,29.4,06.0,0000.0,0001.64,0001.07,0000.79
2021-11-21 23:14:00,,0832.1,4.99,0.00,27.6,26.9,00.0,36.6,29.4,06.0,0000.0,0001.60,0001.05,0000.79
2021-11-21 23:15:00,,0832.1,5.00,0.00,27.6,26.9,00.0,36.6,29.4,06.0,0000.0,0001.56,0001.03,0000.80
2021-11-21 23:16:00,,0832.1,5.01,0.00,27.6,26.9,00.0,36.6,29.4,06.0,0000.0,0001.68,0001.04,0000.80
2021-11-21 23:17:00,,0832.1,5.01,0.00,27.6,26.9,00.0,36.6,29.5,06.0,0000.0,0002.59,0001.03,0000.80
2021-11-21 23:18:00,,0832.1,5.00,0.00,27.6,26.9,00.0,36.6,29.4,06.0,0000.0,0002.71,0001.08,0000.81
2021-11-21 23:19:00,,0832.1,4.99,0.00,27.6,26.9,00.0,36.6,29.4,06.0,0000.0,0002.76,0001.12,0000.82
2021-11-21 23:20:00,,0832.1,5.01,0.00,27.6,26.9,00.0,36.6,29.4,06.1,0000.0,0002.73,0001.11,0000.82
2021-11-21 23:21:00,,0832.1,4.99,0.00,27.6,26.9,00.0,36.6,29.4,06.1,0000.0,0002.69,0001.10,0000.83
2021-11-21 23:22:00,,0832.1,5.00,0.00,27.6,26.9,00.0,36.6,29.4,06.2,0000.0,0002.70,0001.09,0000.83
2021-11-21 23:23:00,,0832.1,5.00,0.00,27.6,26.9,00.0,36.6,29.4,06.3,0000.0,0002.80,0001.13,0000.85
2021-11-21 23:24:00,,0832.1,4.99,0.00,27.6,26.9,00.0,36.6,29.4,06.4,0000.0,0002.81,0001.15,0000.87
2021-11-21 23:25:00,,0832.1,5.01,0.00,27.6,26.9,00.0,36.6,29.4,06.5,0000.0,0002.85,0001.18,0000.89
2021-11-21 23:26:00,,0832.0,4.99,0.00,27.6,26.9,00.0,36.6,29.4,06.8,0000.0,0002.89,0001.20,0000.90
2021-11-21 23:27:00,,0832.0,5.00,0.00,27.6,26.9,00.0,36.6,29.4,07.0,0000.0,0003.02,0001.26,0000.93
2021-11-21 23:28:00,,0832.0,4.99,0.00,27.6,26.9,00.0,36.6,29.4,07.1,0000.0,0002.42,0001.39,0000.98
2021-11-21 23:29:00,,0831.9,5.01,0.00,27.6,26.9,00.0,36.6,29.4,07.0,0000.0,0002.41,0001.40,0001.01
2021-11-21 23:30:00,,0831.9,5.00,0.00,27.6,26.9,00.0,36.6,29.4,06.6,0000.0,0002.51,0001.44,0001.04
2021-11-21 23:31:00,,0832.0,5.00,0.00,27.6,26.8,00.0,36.7,29.4,06.7,0000.0,0002.59,0001.49,0001.06
2021-11-21 23:32:00,,0832.0,4.99,0.00,27.6,26.9,00.0,36.7,29.4,07.1,0000.0,0002.68,0001.51,0001.08
2021-11-21 23:33:00,,0832.0,4.99,0.00,27.6,26.8,00.0,36.7,29.4,07.7,0000.0,0003.71,0001.62,0001.14
2021-11-21 23:34:00,,0832.0,5.00,0.00,27.6,26.8,00.0,36.7,29.4,07.7,0000.0,0004.67,0001.71,0001.20
2021-11-21 23:35:00,,0832.0,5.01,0.00,27.7,26.8,00.0,36.7,29.4,07.7,0000.0,0005.28,0001.80,0001.24
2021-11-21 23:36:00,,0832.1,5.00,0.00,27.6,26.8,00.0,36.7,29.4,07.8,0000.0,0005.89,0001.89,0001.30
2021-11-21 23:37:00,,0832.1,5.00,0.00,27.6,26.8,00.0,36.7,29.4,07.8,0000.0,0007.81,0002.01,0001.33
2021-11-21 23:38:00,,0832.0,5.01,0.00,27.6,26.8,00.0,36.7,29.4,07.8,0000.0,0009.49,0002.12,0001.38
2021-11-21 23:39:00,,0832.1,5.00,0.00,27.6,26.8,00.0,36.7,29.4,07.8,0000.0,0009.81,0002.15,0001.42
2021-11-21 23:40:00,,0832.1,4.99,0.00,27.7,26.8,00.0,36.7,29.4,07.8,0000.0,0011.00,0002.21,0001.46
2021-11-21 23:41:00,,0832.1,5.01,0.00,27.6,26.8,00.0,36.7,29.3,07.8,0000.0,0011.78,0002.24,0001.49
2021-11-21 23:42:00,,0832.1,4.99,0.00,27.6,26.8,00.0,36.7,29.3,07.8,0000.0,0011.79,0002.27,0001.54
2021-11-21 23:43:00,,0832.1,5.01,0.00,27.6,26.8,00.0,36.7,29.3,07.9,0000.0,0011.97,0002.38,0001.60
2021-11-21 23:44:00,,0832.2,4.99,0.00,27.6,26.7,00.0,36.7,29.3,07.9,0000.0,0012.32,0002.41,0001.62
2021-11-21 23:45:00,,0832.2,5.00,0.00,27.6,26.7,00.0,36.7,29.3,07.9,0000.0,0011.96,0002.41,0001.62
2021-11-21 23:46:00,,0832.2,5.00,0.00,27.6,26.7,00.0,36.7,29.3,08.0,0000.0,0012.18,0002.42,0001.65
2021-11-21 23:47:00,,0832.2,5.01,0.00,27.6,26.7,00.0,36.7,29.4,08.0,0000.0,0013.32,0002.46,0001.68
2021-11-21 23:48:00,,0832.3,5.01,0.00,27.6,26.7,00.0,36.7,29.4,08.1,0000.0,0012.60,0002.55,0001.74
2021-11-21 23:49:00,,0832.3,4.99,0.00,27.6,26.7,00.0,36.7,29.3,08.0,0000.0,0011.44,0002.54,0001.77
2021-11-21 23:50:00,,0832.3,5.01,0.00,27.6,26.7,00.0,36.7,29.3,08.0,0000.0,0010.58,0002.53,0001.78
2021-11-21 23:51:00,,0832.3,4.99,0.00,27.6,26.7,00.0,36.6,29.3,08.2,0000.0,0010.16,0002.60,0001.82
2021-11-21 23:52:00,,0832.3,5.00,0.00,27.6,26.7,00.0,36.6,29.4,08.3,0000.0,0009.12,0002.77,0001.90
2021-11-21 23:53:00,,0832.3,5.00,0.00,27.6,26.7,00.0,36.6,29.4,08.3,0000.0,0008.96,0002.86,0001.97
2021-11-21 23:54:00,,0832.4,4.99,0.00,27.6,26.7,00.0,36.6,29.4,08.3,0000.0,0009.26,0002.94,0002.05
2021-11-21 23:55:00,,0832.3,5.00,0.00,27.6,26.7,00.0,36.6,29.3,08.2,0000.0,0009.82,0002.96,0002.10
2021-11-21 23:56:00,,0832.3,5.00,0.00,27.6,26.7,00.0,36.6,29.3,08.0,0000.0,0009.30,0002.99,0002.13
2021-11-21 23:57:00,,0832.4,5.02,0.00,27.6,26.7,00.0,36.6,29.3,08.0,0000.0,0009.43,0003.08,0002.15
2021-11-21 23:58:00,,0832.4,5.00,0.00,27.6,26.7,00.0,36.6,29.3,08.1,0000.0,0008.09,0003.04,0002.16
2021-11-21 23:59:00,,0832.4,4.99,0.00,27.6,26.7,00.0,36.6,29.3,08.0,0000.0,0008.09,0002.97,0002.15
